Regional Weather Roundup
Issued by NWS Newport/Morehead, NC

Home | Current Version | Previous Version | Text Only | Print | Product List | Glossary On
Versions: 1 2 3 4 5 6 7 8 9 10 11 12 13 14 15 16 17 18 19 20 21 22 23 24 25 26 27 28 29 30 31 32 33 34 35 36 37 38 39 40 41 42 43 44 45 46 47 48 49 50
000
ASUS42 KMHX 231725
RWRMHX
WEATHER ROUNDUP FOR EASTERN NORTH CAROLINA
NATIONAL WEATHER SERVICE NEWPORT/MOREHEAD CITY NC
100 PM EDT TUE MAY 23 2017

NOTE: "FAIR" INDICATES FEW OR NO CLOUDS BELOW 12,000 FEET
WITH NO SIGNIFICANT WEATHER AND/OR OBSTRUCTIONS TO VISIBILITY

NCZ015>017-031-032-045>047-102-103-231800-
NORTH COAST

CITY           SKY/WX    TMP DP  RH WIND       PRES   REMARKS
EDENTON        RAIN      69  67  92 NE5       29.83F
ELIZABETH CITY HVY RAIN  67  67 100 E12       29.84F FOG
KITTY HAWK     NOT AVBL
MANTEO         CLOUDY    67  66  97 SE10      29.84F

$$

NCZ045>047-081-094-103-104-231800-
CENTRAL COAST

CITY           SKY/WX    TMP DP  RH WIND       PRES   REMARKS
FRISCO         NOT AVBL

$$

NCZ095-097-098-100-101-231800-
SOUTHERN COAST

CITY           SKY/WX    TMP DP  RH WIND       PRES   REMARKS
BEAUFORT       RAIN      72  72 100 SW13      29.81F FOG
CEDAR ISLAND   NOT AVBL
JACKSONVILLE   NOT AVBL
PINEY ISLAND   RAIN     N/A N/A N/A S12       29.80F
WILMINGTON     CLOUDY    78  73  84 S8        29.81S


$$

NCZ011>013-027>030-043-044-078>080-089-090>093-098-231800-
COASTAL PLAIN

CITY           SKY/WX    TMP DP  RH WIND       PRES   REMARKS
AHOSKIE        LGT RAIN  65  64  96 NE5       29.84F
CLINTON        LGT RAIN  74  72  91 CALM      29.80F
ELIZABETHTOWN  LGT RAIN  77  70  78 S6        29.80F
GOLDSBORO      NOT AVBL
GREENVILLE     CLOUDY    70  70 100 E7        29.83F
HAVELOCK       LGT RAIN  74  70  87 S9        29.80F FOG
KENANSVILLE    CLOUDY    77  70  78 W7        29.79F
KINSTON        CLOUDY    75  72  88 S5        29.80F
NEW BERN       CLOUDY    76  73  91 VRB7      29.79F
RICHLANDS      CLOUDY    77  72  83 S10       29.79F
ROCKY MOUNT    CLOUDY    70  69  97 VRB5      29.80F
WASHINGTON     CLOUDY    70  69  97 N3        29.81F
WHITEVILLE     DRIZZLE   76  70  81 SW5       29.80F

$$

AMZ130-135-150-152-154-156-158-170-250-252-270-ANZ085-086-088-633-658-670-231800-
MARINE OBSERVATIONS

STATION/POSITION TIME  TEMP    WIND        PRES    WAVE   SWELL
                       AIR SEA DIR/SP/G            HT/PER HT/PER
                 (UTC) (F)     (DEG/KT/KT) (MB)    (FT/S) (FT/S)
CHESAPEAKE LIGHT NOT AVBL
64 E VA BEACH    1650   66 64   90/ 14/ 17 1011.9    4/ 5   2/ 8
DUCK             1700   65 65   80/ 12/ 14 1010.1
2 E DUCK         1700      65                N/A     3/ 6
OREGON INLET     1700   67 67   70/  7/ 10 1010.0
13E OREGON INLT  1648      68                N/A     3/ 5   3/ 5
HATTERAS CG      1700   72 74  180/  4/  9 1009.7
DIAMOND BUOY     1650   75 77  210/ 23/ 27 1009.9    4/ 5   2/11
CAPE LOOKOUT     1700   72     190/ 14/ 18 1009.0
BEAUFORT LAB     1700   72 74  210/ 10/ 13 1008.5
30 SE NEW RVR IN 1708   73 76  230/ 19/ 27 1009.7
30 SE NEW RVR IN 1713      76                N/A     6/ 6
27 SE WRIGHTSVLE 1708   73 75  220/ 16/ 21 1009.1
5 SE WRIGHTSVLE  1708   75 74  200/  8/ 16 1009.4
225 S CAPE HAT   1650   76 76  200/ 17/ 19 1014.6    5/ 5   2/14
41 SE CHARLESTON 1710   77 78  210/ 16/ 21 1010.0

$$




USA.gov is the U.S. government's official web portal to all federal, state and local government web resources and services.